Tracking 19192 objects as of 21-Jun-2018
HD Live streaming from Space Station
objects crossing your sky now

OPS 9328 (IDSCS 15)

Track OPS 9328 (IDSCS 15) now!
OPS 9328 (IDSCS 15) is classified as:


NORAD ID: 2655
Int'l Code: 1967-003H
Perigee: 33,668.8 km
Apogee: 34,229.9 km
Inclination: 2.6 °
Period: 1,342.9 minutes
Semi major axis: 40320 km
RCS: 0.3981 m2 (medium)
Launch date: January 18, 1967
Source: United States (US)
Launch site: AIR FORCE EASTERN TEST RANGE (AFETR)
Uplink (MHz):
Downlink (MHz):
Beacon (MHz):
Mode:
Call sign:
Status:

aabbcc
Your satellite tracking list
Your tracking list is empty




NASA's NSSDC Master Catalog

Two Line Element Set (TLE):
1  2655U 67003H   18172.38378628 -.00000103 +00000-0 +00000-0 0  9993
2  2655 002.6386 057.2827 0069581 332.1583 230.1409 01.07230040107914
Source of the keplerian elements: AFSPC